Location: Cowell
(37.9527°N, 121.9894°W)
Time: 16:16:07
(UTC+00:00)

Daily predictions for brighter satellites

Satellite Brightness Start Highest point End
(mag) Time Altitude Azimuth Time Altitude Azimuth Time Altitude Azimuth
Cosmos 1727 Rocket 4.4 12:05:14 10° N 12:11:30 70° E 12:17:47 10° SSE
NOSS 0 Rocket 4.5 12:06:39 10° NW 12:12:16 37° WSW 12:17:53 10° S
Thor Agena Rocket 3.7 12:09:55 10° N 12:15:09 69° WNW 12:20:23 10° SSW
Tiangong -1.9 12:16:14 10° WNW 12:19:19 69° NNE 12:22:21 10° E
Cosmos 1538 Rocket 4.1 12:14:59 10° NNW 12:20:11 84° ENE 12:25:22 10° SSE
